sat.trackr.live / text

‹ back to catalog

STARLINK-3374

NORAD 51112 · 2022-005J

PAYLOAD ACTIVE UNKNOWN

§ Identity

Operator
Country
US
Launch date
2022-01-19
Launch site
AFETR
Launch vehicle
Mass (kg)
RCS (m²)

Purposes: comms

External: N2YO · Heavens-Above · Gunter

§ Orbital elements

Epoch: 2026-09-20T03:29:01.997664Z

Period
93.85 min
Inclination
53.1598°
Eccentricity
0.0001250
Mean motion
15.34387100 rev/d
Perigee alt
461.9 km
Apogee alt
463.6 km
Semi-major
6,840.9 km
B*
2.9683e-5
RAAN
127.4425°
Arg perigee
92.7629°
Mean anomaly
267.3516°
Rev number
25,835

§ Raw data

STARLINK-33741 51112U 22005J   26263.14516201  .00000626  00000+0  29683-4 0  99932 51112  53.1598 127.4425 0001250  92.7629 267.3516 15.34387100258356

JSON: /api/v1/satellites/51112 · /tle

For live sub-satellite position, see the globe view (requires WebGL).

§ Visibility from observer

Set your observer location to see the next 7 days of passes ≥ 10°. The values pass through the URL so the page stays shareable.

No JS? Fill the form by hand. The geolocation button needs JavaScript.